Location: Jaite
(41.2884°N, 81.5737°W)
Time: 21:40:50
(UTC+00:00)

Cosmos 1461 - Pass Details

Date: 18 January 2020
Orbit: 516 x 651 km, 65.0° (Epoch: 16 February)

Event Time Altitude Azimuth Distance (km) Brightness Sun altitude
Rises 00:31:33 0° 319° (NW) 2,819 6.9 -23.6°
Reaches altitude 10° 00:33:53 10° 311° (NW) 1,938 6.1 -24.0°
Maximum altitude 00:37:54 36° 245° (WSW) 967 4.5 -24.8°
Drops below altitude 10° 00:42:03 10° 178° (S) 1,996 5.7 -25.6°
Enters shadow 00:43:18 - 173° (S) 2,466 6.1 -25.8°
